KT4FD Weather Reports


time (UTC)temp
C
wind
direction
speed
KPH
gust
KPH
rain 1hr
cm
rain 24hr
cm
rain mn
cm
humidity
%
barometer
mb
20260506051003 17 210 0.0 0.0 0.00 0.00 0.00 70 1016.1
20260506034003 16 204 3.2 12.9 0.00 0.00 0.00 69 1016.1
20260506033004 16 172 0.0 0.0 0.00 0.00 0.00 71 1016.1
20260506032003 16 172 0.0 0.0 0.00 0.00 0.00 76 1016.3
20260506031003 16 172 0.0 0.0 0.00 0.00 0.00 75 1016.4
20260506030003 16 172 0.0 0.0 0.00 0.00 0.00 75 1016.5
20260506025003 16 173 0.0 0.0 0.00 0.00 0.00 73 1016.3
20260506024003 16 172 0.0 0.0 0.00 0.00 0.00 71 1016.0
20260506023003 16 173 0.0 0.0 0.00 0.00 0.00 74 1016.1
20260506022003 16 173 0.0 0.0 0.00 0.00 0.00 72 1016.3
20260506021003 16 172 0.0 0.0 0.00 0.00 0.00 73 1016.2
20260506020003 16 172 0.0 0.0 0.00 0.00 0.00 72 1016.1
20260506015003 16 172 0.0 0.0 0.00 0.00 0.00 73 1016.0
20260506014003 16 172 0.0 0.0 0.00 0.00 0.00 72 1015.9
20260506013003 16 172 0.0 0.0 0.00 0.00 0.00 71 1015.7
20260506012003 16 172 0.0 0.0 0.00 0.00 0.00 70 1015.7
20260506011004 17 172 0.0 0.0 0.00 0.00 0.00 67 1015.7
20260506010003 17 172 0.0 0.0 0.00 0.00 0.00 65 1015.6
20260506005003 18 172 0.0 3.2 0.00 0.00 0.00 63 1015.6
20260506004003 18 172 0.0 0.0 0.00 0.00 0.00 62 1015.7
20260506003003 19 172 0.0 0.0 0.00 0.00 0.00 61 1015.8
20260506002004 19 172 0.0 3.2 0.00 0.00 0.00 59 1015.6
20260506001004 20 172 0.0 0.0 0.00 0.00 0.00 57 1015.5
20260506000004 20 172 0.0 1.6 0.00 0.00 0.00 56 1015.6
20260505235003 21 176 0.0 0.0 0.00 0.00 0.00 57 1015.6
20260505234003 21 223 0.0 0.0 0.00 0.00 0.00 56 1015.5
20260505233003 21 292 0.0 1.6 0.00 0.00 0.00 53 1015.4
20260505232003 21 270 0.0 1.6 0.00 0.00 0.00 52 1015.7
20260505231003 22 270 1.6 4.8 0.00 0.00 0.00 51 1015.8
20260505230003 22 271 0.0 3.2 0.00 0.00 0.00 51 1015.7
20260505225003 22 271 1.6 4.8 0.00 0.00 0.00 48 1015.7
20260505214003 23 162 4.8 19.3 0.00 0.00 0.00 46 1015.7
20260505213003 24 188 4.8 11.3 0.00 0.00 0.00 45 1015.7
20260505212003 24 187 8.0 16.1 0.00 0.00 0.00 44 1015.6
20260505211003 23 202 8.0 16.1 0.00 0.00 0.00 44 1015.8
20260505210003 23 202 8.0 27.4 0.00 0.00 0.00 41 1016.0
20260505205003 24 187 9.7 24.1 0.00 0.00 0.00 42 1015.7
20260505204003 25 220 9.7 20.9 0.00 0.00 0.00 43 1015.8
20260505203003 25 210 8.0 20.9 0.00 0.00 0.00 45 1015.7
20260505202003 25 192 8.0 16.1 0.00 0.00 0.00 45 1015.9
20260505201003 24 198 9.7 24.1 0.00 0.00 0.00 44 1016.1
20260505200004 25 180 11.3 19.3 0.00 0.00 0.00 42 1016.1
20260505195003 25 205 9.7 24.1 0.00 0.00 0.00 43 1016.2
20260505183003 23 189 4.8 24.1 0.00 0.00 0.00 46 1017.0
20260505182003 23 223 9.7 20.9 0.00 0.00 0.00 46 1017.3
20260505181004 23 225 12.9 24.1 0.00 0.00 0.00 47 1017.4
20260505180003 22 217 9.7 24.1 0.00 0.00 0.00 50 1017.5
20260505175003 22 214 11.3 24.1 0.00 0.00 0.00 51 1017.8
20260505174003 22 214 9.7 19.3 0.00 0.00 0.00 51 1018.0
20260505163003 21 223 11.3 24.1 0.00 0.00 0.00 49 1018.3
20260505162003 21 214 12.9 32.2 0.00 0.00 0.00 50 1018.4
20260505161004 21 205 11.3 22.5 0.00 0.00 0.00 51 1018.3
20260505125003 12 196 0.0 0.0 0.00 0.00 0.00 84 1018.0
20260505124004 12 198 0.0 0.0 0.00 0.00 0.00 86 1018.0
20260505123003 11 199 0.0 1.6 0.00 0.00 0.00 86 1018.1
20260505091004 8 248 0.0 0.0 0.00 0.00 0.00 86 1017.4
20260505090003 8 248 0.0 1.6 0.00 0.00 0.00 86 1017.4
20260505085003 8 248 0.0 0.0 0.00 0.00 0.00 86 1017.4
20260505084003 8 248 0.0 1.6 0.00 0.00 0.00 86 1017.5
20260505083004 8 248 0.0 1.6 0.00 0.00 0.00 86 1017.5
20260505082003 8 248 0.0 1.6 0.00 0.00 0.00 86 1017.5
20260505081004 8 248 0.0 1.6 0.00 0.00 0.00 86 1017.5
20260505080003 8 248 0.0 3.2 0.00 0.00 0.00 86 1017.3
20260505075003 8 249 1.6 3.2 0.00 0.00 0.00 86 1017.4
20260505074003 8 248 0.0 0.0 0.00 0.00 0.00 86 1017.4
20260505073004 8 248 0.0 0.0 0.00 0.00 0.00 86 1017.4
20260505072004 8 248 0.0 0.0 0.00 0.00 0.00 86 1017.4
20260505071003 8 248 0.0 0.0 0.00 0.00 0.00 86 1017.4
20260505070004 9 248 0.0 0.0 0.00 0.00 0.00 86 1017.3
20260505065003 9 248 0.0 0.0 0.00 0.00 0.00 85 1017.4
20260505064003 9 248 0.0 0.0 0.00 0.00 0.00 85 1017.4